SL-14 DEB, 45297

Orbit data source: Space-Track

SL-14 DEB, 45297 is space debris in LEO originally from a launch on Thu, 15 Aug 1991 UTC launched from the Plesetsk Missile And Space Complex (PKMTR). Debris objects in space refer to the collection of defunct objects orbiting the Earth. Examples of debris include non-operational satellites, rocket bodies, and fragments generated from explosions, collisions, or faulty payload assembly.

Loading next visibility...
Identifier
45297, 1991-056AK
Orbit
LEO
Country
Flag of CISCIS
Related business
Manufacturer
Unknown
Mission
Spacecraft
Bus & Motor
Unknown
Mass
Unknown
Launch date (UTC)
1991-08-15 (34 years ago)
Launch vehicle
Unknown
Launch site
Plesetsk Missile And Space Complex (PKMTR)
Object type
Payload
Rocket body
Debris
Shape & HBR
Unknown
Radar Cross Section
Small (<0.1 m²)

Expand to show TLE details & history
Last TLE update: 1 day ago

TLE from 1 day ago
0 SL-14 DEB
1 45297U 91056AK  25241.67139807  .00005198  00000-0  13139-1 0  9994
2 45297  82.6055  19.3548 0063357  22.0630 338.3198 13.18024356264271
Epoch: 2025-08-29T16:06Z
TLE epoch observation values (Epoch: 2025-08-29T16:06:48.793Z)
Latitude
-0.00001°
Longitude
159.5348°
Altitude
1,150.549 km
Speed
7.299 km/s
True Right ascension
01h 17m 25s
True Declination
0° 00' 00"
Sunlit
Object was in full shadow at epoch
Visualization orbit readout
Latitude
Unknown
Longitude
Unknown
Altitude
Unknown
Speed
Unknown
Apparent Right ascension
Unknown
Apparent Declination
Unknown
Sunlit
N/A
Visualization observer readout
Local Sidereal Time
15:55:35
Azimuth
Unknown
Elevation
Unknown
Doppler factor
Unknown
Orbital elements
Apogee altitude
1,237.463 km
Perigee altitude
1,141.57 km
Semi-major axis
7,567.654 km
Eccentricity
0.00634
Inclination
82.6055°
RAAN
19.3548°
Arg. of periapsis
22.063°
True anomaly
338.0496°
Mean anomaly
338.3198°
Eccentric anomaly
338.1849°
Mean motion
3.29687 °/min
Orbital period
109.19 mins
BSTAR
0.013139
Loading maneuver chart data...
Computing Atmospheric mass density...
Loading historical data...
Loading historical data...
Loading historical data...
Loading historical data...
Loading historical data...
Loading historical data...
Loading historical data...

Documentation

Showing up to 5 results
|